Stations météo

Publicité
Lyon/Satolas, France (7481): Température de l'air & dewpoint: 03.12.2019 13:00:00 - 09.12.2019 13:00:00 (CET)Lyon/Satolas, France (7481): Température de l'air 5cm: 03.12.2019 13:00:00 - 09.12.2019 13:00:00 (CET)Lyon/Satolas, France (7481): Température de l'air -20cm & Température de l'air -100cm: 03.12.2019 13:00:00 - 09.12.2019 13:00:00 (CET)Lyon/Satolas, France (7481): Vitesse du vent & gusts: 03.12.2019 13:00:00 - 09.12.2019 13:00:00 (CET)Lyon/Satolas, France (7481): Direction du vent: 03.12.2019 13:00:00 - 09.12.2019 13:00:00 (CET)Lyon/Satolas, France (7481): reduced air pressure: 03.12.2019 13:00:00 - 09.12.2019 13:00:00 (CET)Lyon/Satolas, France (7481): visibility: 03.12.2019 13:00:00 - 09.12.2019 13:00:00 (CET)Lyon/Satolas, France (7481): Quantités de précipitations: 03.12.2019 13:00:00 - 09.12.2019 13:00:00 (CET)
Date & Time tt [°C] td [°C] tt 5cm [°C] tt -20cm [°C] tt -100cm [°C] ff [km/h] ff [knt] fx [km/h] fx [knt] dd ppp [hPa] vv [km] rr [mm]
09.12.2019 13:00:00 9,2 5,6 7,6 7,5 9,6 17 9 41 22 SW 1013,9 40 0,2
09.12.2019 12:00:00 8,7 5,1 7,8 7,4 9,6 19 11 37 20 SSW 1014,2 20 0,2
09.12.2019 11:00:00 8,4 5,0 8,0 7,4 9,6 18 10 29 16 SSW 1014,3 40 0,0
09.12.2019 10:00:00 8,0 4,6 7,0 7,4 9,6 17 9 25 14 S 1014,0 40 0,0
09.12.2019 09:00:00 7,3 4,4 6,4 7,5 9,6 16 9 24 13 SSE 1014,2 40 0,0
09.12.2019 08:00:00 7,0 4,5 6,0 7,6 9,5 14 8 22 12 SSE 1014,5 40 0,0
09.12.2019 07:00:00 7,0 4,6 6,0 7,7 9,5 16 9 22 12 SW 1014,9 50 0,0
09.12.2019 06:00:00 7,7 5,0 6,2 7,7 9,5 19 10 32 17 WSW 1015,1 13 0,6
09.12.2019 05:00:00 8,3 2,9 5,3 7,9 9,5 7 4 26 14 S 1014,9 52 0,0
09.12.2019 04:00:00 8,9 3,1 7,5 7,9 9,5 19 11 28 15 S 1014,7 50 0,0
09.12.2019 03:00:00 9,6 4,4 8,2 8,0 9,5 17 9 28 15 SSW 1015,4 35 0,0
09.12.2019 02:00:00 8,9 6,9 8,3 8,0 9,5 9 5 19 10 SW 1016,5 50 0,0
09.12.2019 01:00:00 8,8 6,9 7,5 8,0 9,5 15 8 30 16 NW 1016,7 50 0,0
09.12.2019 00:00:00 9,9 7,0 8,9 8,1 9,5 11 6 27 15 S 1015,9 50 0,0
08.12.2019 23:00:00 10,1 6,8 9,5 8,1 9,5 14 8 31 17 S 1015,5 50 0,0
08.12.2019 22:00:00 10,3 7,0 9,7 8,1 9,5 22 12 40 22 S 1015,1 50 0,0
08.12.2019 21:00:00 10,3 7,2 8,5 8,0 9,5 19 11 30 16 S 1015,5 50 0,0
08.12.2019 20:00:00 9,6 7,7 8,5 8,1 9,5 16 9 32 18 S 1015,9 3,5 1,0
08.12.2019 19:00:00 10,8 6,3 8,6 8,1 9,5 19 10 36 19 S 1015,6 20 0,2
08.12.2019 18:00:00 11,3 5,2 10,6 8,1 9,5 16 9 28 15 SSE 1015,8 50 0,0
08.12.2019 17:00:00 11,6 4,8 10,7 8,1 9,5 16 9 26 14 S 1015,9 50 0,0
08.12.2019 16:00:00 12,4 4,8 11,9 8,0 9,5 10 6 23 12 S 1016,1 50 0,0
08.12.2019 15:00:00 13,0 4,7 13,0 7,8 9,5 16 8 29 15 S 1016,1 50 0,0
08.12.2019 14:00:00 13,8 4,6 13,7 7,5 9,5 19 11 27 15 S 1016,8 40 0,0
08.12.2019 13:00:00 13,5 4,4 13,7 7,2 9,4 16 9 25 13 S 1017,9 40 0,0
08.12.2019 12:00:00 12,0 5,8 11,8 7,0 9,4 9 5 22 12 SE 1019,0 40 0,0
08.12.2019 11:00:00 10,4 5,4 10,2 6,8 9,4 8 4 16 9 SSE 1020,1 40 0,0
08.12.2019 10:00:00 8,5 5,1 6,6 6,8 9,4 9 5 27 14 S 1020,2 25 0,0
08.12.2019 09:00:00 6,3 4,5 5,5 6,9 9,4 21 11 28 15 SE 1020,2 17 0,0
08.12.2019 08:00:00 6,1 4,4 5,7 6,9 9,5 15 8 20 11 SE 1020,5 15 0,0
08.12.2019 07:00:00 7,0 5,0 6,3 6,9 9,4 10 6 15 8 SE 1020,6 15 0,0
08.12.2019 06:00:00 6,5 4,8 6,1 7,0 9,4 8 4 28 15 SSW 1020,8 10 0,0
08.12.2019 05:00:00 6,3 4,8 6,1 7,0 9,4 20 11 28 15 SE 1020,6 8 0,0
08.12.2019 04:00:00 7,2 5,3 6,9 7,0 9,5 17 9 27 14 SE 1021,5 9 0,0
08.12.2019 03:00:00 7,1 5,4 6,9 7,0 9,4 9 5 21 12 SSE 1021,8 8 0,0
08.12.2019 02:00:00 7,7 5,8 7,1 7,0 9,4 13 7 18 10 SE 1022,2 8 0,0
08.12.2019 01:00:00 7,7 5,8 7,0 7,0 9,4 3 1 18 10 NNW 1022,1 7 0,0
08.12.2019 00:00:00 8,2 5,8 7,4 7,0 9,5 4 2 15 8 S 1022,7 10 0,0
07.12.2019 23:00:00 8,8 5,9 7,3 7,0 9,4 8 5 19 11 W 1022,8 9 0,0
07.12.2019 22:00:00 8,2 5,7 7,4 7,0 9,5 3 2 20 11 NNW 1022,9 9 0,0
07.12.2019 21:00:00 8,5 5,8 7,2 7,1 9,5 6 4 11 6 E 1022,6 13 0,0
07.12.2019 20:00:00 8,4 5,9 7,1 7,1 9,5 2 1 4 2 S 1022,8 13 0,0
07.12.2019 19:00:00 8,6 5,9 7,4 7,1 9,5 4 2 7 4 N 1022,6 15 0,0
07.12.2019 18:00:00 9,1 6,0 7,3 7,0 9,5 5 3 13 7 SW 1022,2 20 0,0
07.12.2019 17:00:00 9,9 6,2 8,8 7,0 9,5 2 1 11 6 W 1021,9 20 0,0
07.12.2019 16:00:00 10,9 6,4 10,9 6,7 9,5 6 3 15 8 NE 1021,7 20 0,0
07.12.2019 15:00:00 11,6 6,1 13,2 6,5 9,5 8 4 12 6 N 1021,3 20 0,0
07.12.2019 14:00:00 11,4 5,7 12,5 6,1 9,5 0 0 9 5 N 1021,2 20 0,0
07.12.2019 13:00:00 12,3 5,2 12,0 5,7 9,5 5 3 10 5 E 1021,6 20 0,0
07.12.2019 12:00:00 9,8 4,0 10,5 5,4 9,5 2 1 10 5 E 1022,5 20 0,0
07.12.2019 11:00:00 8,5 3,9 9,0 5,3 9,5 4 2 13 7 SE 1023,0 20 0,0
07.12.2019 10:00:00 7,6 3,1 5,6 5,2 9,6 6 3 13 7 S 1022,5 20 0,0
07.12.2019 09:00:00 4,5 2,2 1,9 5,2 9,5 7 4 11 6 SE 1022,9 20 0,0
07.12.2019 08:00:00 5,3 2,1 3,2 5,2 9,6 3 1 9 5 SSE 1022,4 20 0,0
07.12.2019 07:00:00 4,5 2,7 2,1 5,3 9,6 2 1 9 5 NE 1021,9 15 0,0
07.12.2019 06:00:00 5,4 2,9 4,5 5,2 9,6 2 1 10 5 SSE 1021,2 15 0,0
07.12.2019 05:00:00 6,3 2,9 4,7 5,2 9,6 5 3 10 6 SSE 1020,8 20 0,0
07.12.2019 04:00:00 5,2 3,4 4,4 5,2 9,6 4 2 9 5 NE 1021,1 20 0,0
07.12.2019 03:00:00 5,5 3,3 4,7 5,1 9,6 4 2 16 9 NW 1021,2 20 0,0
07.12.2019 02:00:00 7,1 2,8 5,2 5,1 9,6 6 3 17 9 S 1020,6 20 0,0
07.12.2019 01:00:00 6,1 2,7 5,0 5,0 9,6 13 7 20 11 SE 1021,1 15 0,0
07.12.2019 00:00:00 5,4 2,2 4,3 5,0 9,7 7 4 15 8 S 1021,4 20 0,0
06.12.2019 23:00:00 5,1 2,1 3,2 5,1 9,7 8 4 11 6 SE 1021,5 18 0,0
06.12.2019 22:00:00 4,2 1,9 3,3 5,1 9,7 3 2 10 5 SSW 1021,5 18 0,0
06.12.2019 21:00:00 4,8 1,5 3,7 5,1 9,7 9 5 14 8 SE 1021,2 16 0,0
06.12.2019 20:00:00 5,3 1,8 2,6 5,2 9,7 3 1 14 8 E 1021,2 10 0,0
06.12.2019 19:00:00 5,9 2,0 1,1 5,3 9,8 3 2 14 7 WNW 1020,9 10 0,0
06.12.2019 18:00:00 4,4 3,1 0,6 5,3 9,8 5 3 11 6 SSE 1020,9 6 0,0
06.12.2019 17:00:00 6,5 3,8 3,0 5,2 9,8 4 2 10 5 S 1020,9 5 0,0
06.12.2019 16:00:00 8,4 5,1 10,3 4,9 9,8 4 2 9 5 ESE 1020,9 10 0,0
06.12.2019 15:00:00 8,6 4,0 9,9 4,6 9,8 5 3 9 5 SSE 1021,3 15 0,0
06.12.2019 14:00:00 7,2 4,0 7,7 4,3 9,8 4 2 11 6 S 1022,3 8 0,0
06.12.2019 13:00:00 5,2 2,9 6,2 3,9 9,8 0 0 14 8 N 1023,1 8 0,0
06.12.2019 12:00:00 2,3 1,9 2,0 3,7 9,9 8 4 11 6 SSE 1024,5 2,0 0,0
06.12.2019 11:00:00 -0,1 -0,1 -0,1 3,6 9,9 6 3 14 8 ESE 1025,6 0,3 0,0
06.12.2019 10:00:00 -1,2 -1,2 -1,1 3,6 9,9 5 3 9 5 SSE 1025,9 0,3 0,0
06.12.2019 09:00:00 -1,6 -1,7 -1,5 3,6 9,9 3 2 14 8 SSE 1025,5 0,2 0,0
06.12.2019 08:00:00 -1,5 -1,5 -1,5 3,7 9,9 6 4 14 8 SSE 1025,5 0,1 0,0
06.12.2019 07:00:00 -1,8 -1,8 -1,9 3,7 9,9 7 4 27 15 SSE 1025,5 0,1 0,0
06.12.2019 06:00:00 -2,2 -2,3 -2,3 3,8 10,0 9 5 14 7 SE 1025,4 0,2 0,0
06.12.2019 05:00:00 -1,6 -1,7 -1,6 3,8 10,0 4 2 9 5 W 1025,4 0,1 0,0
06.12.2019 04:00:00 -1,6 -1,6 -1,6 3,9 10,0 3 1 22 12 S 1025,3 0,1 0,0
06.12.2019 03:00:00 -1,8 -1,8 -2,2 3,9 10,0 6 4 16 9 SSE 1025,5 0,1 0,0
06.12.2019 02:00:00 -2,5 -2,6 -2,6 4,0 10,0 5 3 13 7 S 1025,6 0,1 0,0
06.12.2019 01:00:00 -2,9 -3,0 -2,9 4,0 10,0 5 3 11 6 SSE 1026,0 0,1 0,0
06.12.2019 00:00:00 -3,1 -3,4 -4,4 4,1 10,1 4 2 11 6 NNW 1026,5 0,1 0,0
05.12.2019 23:00:00 -3,2 -3,6 -3,8 4,3 10,1 3 1 8 5 WNW 1026,4 0,3 0,0
05.12.2019 22:00:00 -2,7 -3,0 -3,4 4,4 10,1 2 1 10 5 WSW 1026,7 0,1 0,0
05.12.2019 21:00:00 -2,3 -2,6 -3,2 4,5 10,1 4 2 7 4 SSE 1026,5 0,1 0,0
05.12.2019 20:00:00 -1,9 -2,2 -2,3 4,5 10,1 0 0 5 3 N 1026,6 0,1 0,0
05.12.2019 19:00:00 -1,0 -1,1 -1,2 4,6 10,2 0 0 5 3 N 1026,2 0,2 0,0
05.12.2019 18:00:00 -0,6 -0,7 -0,8 4,6 10,1 0 0 9 5 N 1025,5 0,1 0,0
05.12.2019 17:00:00 0,5 0,5 0,7 4,6 10,2 5 3 11 6 NE 1025,3 0,1 0,0
05.12.2019 16:00:00 0,9 0,8 1,5 4,4 10,2 5 3 7 4 NE 1024,9 0,1 0,0
05.12.2019 15:00:00 1,7 1,6 2,8 4,3 10,3 3 2 9 5 NE 1024,9 0,4 0,0
05.12.2019 14:00:00 1,6 1,6 3,5 4,1 10,3 3 2 11 6 NNW 1024,9 0,7 0,0
05.12.2019 13:00:00 0,7 0,7 2,3 3,9 10,3 5 3 9 5 E 1025,4 0,3 0,0
05.12.2019 12:00:00 -0,7 -0,7 0,0 3,8 10,3 6 4 10 6 NNW 1025,8 0,2 0,0
05.12.2019 11:00:00 -1,7 -1,8 -1,0 3,8 10,3 3 2 10 5 NNW 1025,9 0,2 0,0
05.12.2019 10:00:00 -2,2 -2,3 -2,5 3,8 10,3 3 2 8 4 SE 1025,3 0,2 0,0
05.12.2019 09:00:00 -3,2 -3,5 -3,0 3,9 10,4 0 0 6 3 N 1025,2 0,1 0,0
05.12.2019 08:00:00 -3,3 -3,4 -3,6 3,9 10,4 4 2 6 3 SSW 1024,4 0,1 0,0
05.12.2019 07:00:00 -3,8 -4,1 -3,8 4,0 10,4 0 0 5 3 N 1023,9 0,1 0,0
05.12.2019 06:00:00 -3,9 -4,2 -4,3 4,0 10,4 3 1 5 3 NNE 1023,5 0,1 0,0
05.12.2019 05:00:00 -3,4 -4,1 -4,6 4,2 10,5 4 2 8 5 N 1023,4 0,1 0,0
05.12.2019 04:00:00 -2,4 -2,8 -3,5 4,2 10,4 6 4 14 8 SE 1023,2 0,1 0,0
05.12.2019 03:00:00 -2,0 -2,4 -3,1 4,3 10,5 8 4 10 5 ESE 1023,2 1,1 0,0
05.12.2019 02:00:00 -1,9 -2,5 -3,5 4,4 10,5 4 2 6 3 SSE 1023,0 0,4 0,0
05.12.2019 01:00:00 -1,4 -2,1 -3,3 4,5 10,5 2 1 5 3 WSW 1022,6 1,5 0,0
05.12.2019 00:00:00 -1,0 -1,6 -2,7 4,6 10,5 5 3 9 5 SSE 1022,4 1,8 0,0
04.12.2019 23:00:00 -1,2 -1,9 -2,8 4,7 10,5 0 0 6 3 N 1021,9 1,2 0,0
04.12.2019 22:00:00 0,1 -1,0 -1,6 4,9 10,6 2 1 10 6 SSE 1021,9 2,8 0,0
04.12.2019 21:00:00 0,3 -0,6 -2,0 5,0 10,6 8 4 18 10 SSW 1021,9 1,8 0,0
04.12.2019 20:00:00 1,0 0,0 -1,0 5,1 10,6 9 5 14 8 ESE 1021,6 3,8 0,0
04.12.2019 19:00:00 0,7 -0,3 -2,0 5,2 10,6 5 3 9 5 NE 1021,4 6 0,0
04.12.2019 18:00:00 1,1 0,2 -1,4 5,3 10,6 2 1 9 5 SW 1021,1 6 0,0
04.12.2019 17:00:00 1,6 0,0 0,6 5,2 10,6 3 2 10 5 N 1020,3 6 0,0
04.12.2019 16:00:00 2,4 0,3 3,0 5,1 10,7 7 4 15 8 ENE 1020,1 6 0,0
04.12.2019 15:00:00 3,3 0,5 4,1 4,9 10,7 8 4 17 9 ENE 1019,7 4,3 0,0
04.12.2019 14:00:00 2,8 0,4 3,9 4,8 10,7 8 4 13 7 NNE 1020,0 6 0,0
04.12.2019 13:00:00 2,5 0,1 4,3 4,5 10,7 6 4 10 5 NE 1020,3 6 0,0
04.12.2019 12:00:00 0,6 0,0 2,6 4,4 10,7 3 2 21 11 ESE 1021,0 1,0 0,0
04.12.2019 11:00:00 -1,3 -1,7 2,7 4,4 10,7 2 1 9 5 NNE 1021,4 0,3 0,0
04.12.2019 10:00:00 -2,5 -2,6 -3,5 4,5 10,8 2 1 9 5 W 1021,8 0,2 0,0
04.12.2019 09:00:00 -4,1 -4,4 -4,8 4,6 10,8 4 2 10 5 ENE 1021,8 0,1 0,0
04.12.2019 08:00:00 -4,5 -5,0 -4,9 4,7 10,8 5 3 8 4 E 1022,0 0,5 0,0
04.12.2019 07:00:00 -4,1 -4,5 -5,0 4,8 10,8 4 2 5 3 N 1022,2 0,4 0,0
04.12.2019 06:00:00 -3,5 -4,2 -4,5 4,9 10,8 3 1 6 3 NW 1022,2 1,2 0,0
04.12.2019 05:00:00 -3,0 -3,8 -4,4 5,0 10,8 2 1 3 2 SSE 1022,4 3,0 0,0
04.12.2019 04:00:00 -2,5 -3,6 -4,3 5,2 10,8 2 1 9 5 NW 1023,2 1,2 0,0
04.12.2019 03:00:00 -1,6 -2,4 -2,9 5,3 10,9 9 5 13 7 SE 1023,8 3,5 0,0
04.12.2019 02:00:00 -1,2 -1,9 -3,2 5,5 10,9 10 5 11 6 SE 1023,9 3,0 0,0
04.12.2019 01:00:00 -1,4 -2,4 -3,5 5,6 10,9 4 2 7 4 SE 1024,2 1,5 0,0
04.12.2019 00:00:00 -0,7 -1,5 -3,2 5,8 10,9 5 3 8 4 S 1024,5 4,0 0,0
03.12.2019 23:00:00 -0,2 -1,2 -2,4 6,0 10,9 4 2 5 3 S 1024,6 4,0 0,0
03.12.2019 22:00:00 -0,1 -1,5 -2,0 6,1 10,9 0 0 5 3 N 1025,0 5 0,0
03.12.2019 21:00:00 0,4 -1,0 -1,6 6,4 10,9 3 1 5 3 SE 1025,3 6 0,0
03.12.2019 20:00:00 0,5 -1,0 -1,7 6,5 10,9 2 1 9 5 ESE 1025,4 9 0,0
03.12.2019 19:00:00 1,4 -0,7 -0,1 6,7 10,9 2 1 12 6 NW 1025,2 15 0,0
03.12.2019 18:00:00 1,9 -0,8 0,7 6,8 11,0 9 5 10 6 N 1025,2 15 0,0
03.12.2019 17:00:00 2,6 -1,0 1,9 6,8 11,0 5 3 11 6 NNW 1025,3 15 0,0
03.12.2019 16:00:00 3,2 -0,8 3,8 6,7 11,0 8 4 15 8 NNW 1025,4 20 0,0
03.12.2019 15:00:00 3,1 -1,1 4,9 6,6 11,0 9 5 14 8 N 1025,4 20 0,0
03.12.2019 14:00:00 2,9 -1,3 5,2 6,4 11,0 8 4 18 10 NNW 1025,8 20 0,0
03.12.2019 13:00:00 2,4 -1,2 4,4 6,1 11,0 7 4 19 10 NW 1026,4 15 0,0

tt = Température de l'air
td = dewpoint
tt 5cm = Température de l'air 5cm
tt -20cm = Température de l'air -20cm
tt -100cm = Température de l'air -100cm
ff = Vitesse du vent
fx = gusts
dd = Direction du vent
ppp = reduced air pressure
vv = visibility
rr = Quantités de précipitations

stations d'obs. à proximité